This demonstration page uses our WeatherBlox Daily Observations layout. Learn more.

Left ArrowRight Arrow

Hourly Observations for February 21, 2019

Temp ( °F °C ) Dew Point ( °F °C ) Humidity (%) Winds ( mph kmh ) Pressure ( in mb ) Visibility ( mi km ) Precip ( " mm )
12:57 am 00:57 Clear 2 -16.7 -2 -18.9 83 83 WSW 3 6 30.05 1018 10 16 0.00 0.00
1:57 am 01:57 Clear 0 -17.8 -3 -19.4 87 87 NNW 3 6 30.05 1018 10 16 0.00 0.00
2:57 am 02:57 Clear -1 -18.3 -4 -20 87 87 Calm 30.06 1018 10 16 0.00 0.00
3:57 am 03:57 Clear -1 -18.3 -4 -20 87 87 Calm 30.08 1019 10 16 0.00 0.00
4:57 am 04:57 Clear -2 -18.9 -5 -20.6 87 87 NW 3 6 30.09 1019 10 16 0.00 0.00
5:57 am 05:57 Partly Cloudy 0 -17.8 -3 -19.4 87 87 Calm 30.11 1020 10 16 0.00 0.00
6:57 am 06:57 Mostly Cloudy 1 -17.2 -3 -19.4 83 83 NW 6 9 30.14 1021 10 16 0.00 0.00
7:57 am 07:57 Partly Cloudy 2 -16.7 -1 -18.3 88 88 NNW 5 7 30.16 1022 10 16 0.00 0.00
8:57 am 08:57 Cloudy 9 -12.8 5 -15 84 84 N 3 6 30.19 1022 10 16 0.00 0.00
9:57 am 09:57 Cloudy 18 -7.8 13 -10.6 81 81 NE 5 7 30.19 1022 10 16 0.00 0.00
10:57 am 10:57 Cloudy 23 -5 15 -9.4 72 72 ENE 8 13 30.17 1022 10 16 0.00 0.00
11:57 am 11:57 Cloudy 26 -3.3 18 -7.8 71 71 ENE 8 13 30.16 1022 10 16 0.00 0.00
12:57 pm 12:57 Cloudy 29 -1.7 20 -6.7 69 69 ENE 12 19 30.13 1020 10 16 0.00 0.03
1:57 pm 13:57 Cloudy 30 -1.1 22 -5.6 72 72 E 12 19 30.13 1020 10 16 0.00 0.00
2:57 pm 14:57 Cloudy 29 -1.7 22 -5.6 75 75 ENE 17 28 30.12 1020 10 16 0.00 0.00
3:57 pm 15:57 Cloudy 28 -2.2 22 -5.6 78 78 ENE 14 22 30.14 1021 10 16 0.00 0.00
4:57 pm 16:57 Cloudy 27 -2.8 21 -6.1 78 78 E 18 30 30.15 1021 10 16 0.00 0.00
6:57 pm 18:57 Windy with Snow Likely 25 -3.9 21 -6.1 85 85 E 20 31 30.19 1022 5 8 0.00 0.03
7:05 pm 19:05 Cloudy with Light Snow 25 -4 21 -6 86 86 E 18 30 30.21 1023 3 5 0.00 0.03
7:57 pm 19:57 Cloudy with Light Snow 24 -4.4 22 -5.6 91 91 E 15 24 30.21 1023 4 6 0.00 0.03
8:52 pm 20:52 Cloudy with Light Snow 25 -4 21 -6 86 86 E 14 22 30.24 1024 3 4 0.00 0.00
8:57 pm 20:57 Cloudy with Light Snow 24 -4.4 22 -5.6 91 91 E 15 24 30.21 1023 3 4 0.00 0.03
9:05 pm 21:05 Cloudy with Light Snow 25 -4 21 -6 86 86 E 15 24 30.24 1024 4 6 0.00 0.03
9:57 pm 21:57 Cloudy 24 -4.4 21 -6.1 88 88 E 16 26 30.21 1023 8 13 0.00 0.03
10:57 pm 22:57 Cloudy 24 -4.4 20 -6.7 84 84 E 15 24 30.22 1023 9 14 0.00 0.03
11:57 pm 23:57 Cloudy 24 -4.4 19 -7.2 81 81 E 14 22 30.21 1023 10 16 0.00 0.00

Powered by AerisWeather